Location: Unspecified
(30.8000°N, 0.0000°E)
Time: 05:35:24
(UTC+00:00)

AO-27 - Visible Passes

Search period start: 04 April 2026 00:00
Search period end: 14 April 2026 00:00
Orbit: 783 x 794 km, 98.7° (Epoch: 29 March)

Date Brightness Start Highest point End Pass type
(mag) Time Alt. Az. Time Alt. Az. Time Alt. Az.
4 Apr 9.9 20:49:49 15° NNE 20:49:49 15° NNE 20:50:48 10° NNE visible
5 Apr 10.4 22:00:06 14° NNW 22:00:06 14° NNW 22:00:49 10° NNW visible
6 Apr 9.9 21:29:42 18° N 21:29:42 18° N 21:30:59 10° N visible
7 Apr 9.7 20:59:17 17° NNE 20:59:17 17° NNE 21:00:40 10° N visible
8 Apr 9.9 20:28:52 13° NE 20:28:52 13° NE 20:29:41 10° NNE visible
8 Apr 10.4 22:09:34 14° NNW 22:09:34 14° NNW 22:10:18 10° NNW visible
9 Apr 9.9 21:39:09 19° NNW 21:39:09 19° NNW 21:40:37 10° NNW visible
10 Apr 9.6 21:08:45 20° NNE 21:08:45 20° NNE 21:10:28 10° N visible
11 Apr 9.7 20:38:20 16° NNE 20:38:20 16° NNE 20:39:45 10° NNE visible
11 Apr 10.4 22:19:02 13° NW 22:19:02 13° NW 22:19:44 10° NNW visible
12 Apr 9.9 21:48:37 20° NNW 21:48:37 20° NNW 21:50:13 10° NNW visible
13 Apr 9.5 21:18:13 23° N 21:18:13 23° N 21:20:13 10° N visible
